Regional Weather Roundup
Issued by NWS

Home | Current Version | Previous Version | Text Only | Print | Product List | Glossary Off
Versions: 1 2 3 4 5 6 7 8 9 10 11 12 13 14 15 16 17 18 19 20 21 22 23 24 25 26 27 28 29 30 31 32 33 34 35 36 37 38 39 40 41 42 43 44 45 46 47 48 49 50

000
ASUS43 KBIS 292331
RWRND
NORTH DAKOTA REGIONAL WEATHER ROUNDUP
NATIONAL WEATHER SERVICE EASTERN NORTH DAKOTA/GRAND FORKS ND
600 PM CDT MON MAY 29 2017

  NOTE: "FAIR" INDICATES FEW OR NO CLOUDS BELOW 12,000 FEET WITH NO
  SIGNIFICANT WEATHER AND/OR OBSTRUCTIONS TO VISIBILITY.

NDZ001>003-009>011-017-300000-
...NORTHWEST NORTH DAKOTA...

CITY           SKY/WX    TMP DP  RH WIND       PRES   REMARKS
WILLISTON      FAIR      70  30  22 NW22G29   30.06F
MINOT          CLOUDY    64  34  32 NW25G33   29.98S
MINOT AFB      PTSUNNY   63  36  36 N23G29    29.97S
$$

NDZ018>021-031>035-040>046-300000-
...SOUTHWEST NORTH DAKOTA...

CITY           SKY/WX    TMP DP  RH WIND       PRES   REMARKS
BISMARCK       CLOUDY    64  36  35 NW20G26   30.01F
DICKINSON      FAIR      64  28  25 NW22G29   30.05F
GARRISON         N/A     63  35  35 NW25G38   29.99F
HETTINGER      PTSUNNY   62  31  31 NW17G28   30.08S
$$

NDZ004>008-012>016-024-026-027-054-300000-
...NORTHEAST NORTH DAKOTA...

CITY           SKY/WX    TMP DP  RH WIND       PRES   REMARKS
GRAND FORKS    PTSUNNY   54  46  74 N15G21    29.89R
GRAND FORKS AF CLOUDY    53  47  80 N9        29.90R
DEVILS LAKE    CLOUDY    54  44  69 NW18G25   29.94S
$$

NDZ022-023-025-028>030-036>039-047>053-300000-
...SOUTHEAST NORTH DAKOTA...

CITY           SKY/WX    TMP DP  RH WIND       PRES   REMARKS
JAMESTOWN      CLOUDY    58  42  55 NW20G26   29.94F
FARGO          LGT RAIN  55  48  77 NW18      29.90R
WAHPETON       MOCLDY    59  41  51 NW20G29   29.90F
$$




USA.gov is the U.S. government's official web portal to all federal, state and local government web resources and services.